period_start,C,m1,H,J0,J1,J2,J3,J4,J5,JA,JB,JC,JD,JJ,JK,JN,#
2015-09-08 00:01:39,0.04,0.60,0.00,27.08,30.85,33.49,14.40,47.16,1022.00,2022.87,3171.22,3052.24,3311.99,600.27,591.35,11.25,0000 0000 0000 0000 000000
2015-09-08 00:06:40,0.01,0.60,0.00,27.10,30.85,33.50,14.30,46.98,1022.01,2022.83,3170.81,3052.00,3311.40,600.02,591.07,11.31,0000 0000 0000 0000 000000
2015-09-08 00:11:41,0.02,0.60,0.00,27.11,30.86,33.52,14.39,47.16,1022.02,2022.86,3170.09,3051.64,3311.00,600.03,591.08,11.36,0000 0000 0000 0000 000000
2015-09-08 00:16:42,0.03,0.60,0.00,27.12,30.87,33.50,14.38,47.13,1022.11,2022.81,3169.49,3051.02,3310.27,600.05,591.08,11.41,0000 0000 0000 0000 000000
2015-09-08 00:21:43,-0.00,0.60,0.00,27.13,30.87,33.50,14.36,46.98,1022.40,2022.59,3168.89,3050.53,3309.77,599.92,591.04,11.46,0000 0000 0000 0000 000000
2015-09-08 00:26:45,0.04,0.61,0.00,27.15,30.88,33.49,14.34,46.99,1022.38,2022.53,3168.12,3050.02,3309.05,599.74,590.96,11.51,0000 0000 0000 0000 000000
2015-09-08 00:31:46,0.02,0.61,0.00,27.16,30.90,33.50,14.33,46.88,1022.38,2022.28,3167.67,3049.70,3308.71,599.72,591.00,11.56,0000 0000 0000 0000 000000
2015-09-08 00:36:48,0.01,0.61,0.00,27.17,30.90,33.48,14.36,47.16,1022.35,2022.16,3166.96,3049.04,3308.02,600.12,591.23,11.61,0000 0000 0000 0000 000000
2015-09-08 00:41:49,0.04,0.61,0.00,27.20,30.91,33.48,14.28,47.13,1022.33,2022.11,3166.16,3048.72,3307.42,599.80,590.82,11.66,0000 0000 0000 0000 000000
2015-09-08 00:46:50,0.01,0.61,0.00,27.21,30.92,33.48,14.36,47.08,1022.28,2022.04,3165.71,3048.05,3306.89,599.99,590.97,11.71,0000 0000 0000 0000 000000
2015-09-08 00:51:52,0.02,0.61,0.00,27.23,30.92,33.45,14.34,46.95,1022.26,2022.01,3165.01,3047.74,3306.14,600.07,591.10,11.76,0000 0000 0000 0000 000000
2015-09-08 00:56:53,0.03,0.61,0.00,27.25,30.94,33.47,14.25,47.14,1022.34,2022.01,3164.27,3047.06,3305.71,599.87,590.78,11.81,0000 0000 0000 0000 000000
2015-09-08 01:01:54,0.03,0.61,0.00,27.25,30.95,33.52,14.32,47.33,1022.26,2022.00,3163.63,3046.72,3305.04,599.64,590.62,11.86,0000 0000 0000 0000 000000
2015-09-08 01:06:55,0.03,0.62,0.00,27.21,30.95,33.61,14.34,47.03,1022.05,2022.00,3162.97,3046.04,3304.51,600.36,591.11,11.91,0000 0000 0000 0000 000000
2015-09-08 01:11:57,0.02,0.62,0.00,27.18,30.96,33.66,14.34,46.93,1022.03,2022.00,3162.24,3045.93,3304.01,600.07,590.93,11.96,0000 0000 0000 0000 000000
2015-09-08 01:16:58,0.04,0.62,0.00,27.14,30.97,33.68,14.24,46.87,1022.02,2022.00,3161.83,3045.18,3303.55,599.61,590.51,12.01,0000 0000 0000 0000 000000
2015-09-08 01:21:59,0.01,0.62,0.00,27.10,30.97,33.70,14.30,46.94,1022.03,2022.00,3161.07,3044.98,3303.01,599.86,590.94,12.06,0000 0000 0000 0000 000000
2015-09-08 01:27:01,0.04,0.62,0.00,27.05,30.95,33.72,14.38,47.05,1022.03,2022.00,3160.35,3044.60,3302.56,599.80,590.88,12.11,0000 0000 0000 0000 000000
2015-09-08 01:32:02,0.01,0.62,0.00,27.00,30.95,33.71,14.30,46.85,1022.01,2022.00,3159.98,3044.02,3302.01,599.85,591.06,12.16,0000 0000 0000 0000 000000
2015-09-08 01:37:03,0.02,0.62,0.00,26.96,30.95,33.70,14.31,47.00,1022.02,2022.00,3159.32,3043.98,3301.80,599.83,591.14,12.21,0000 0000 0000 0000 000000
2015-09-08 01:42:04,0.03,0.63,0.00,26.93,30.93,33.66,14.34,47.20,1022.01,2022.01,3158.82,3043.40,3301.09,600.13,591.31,12.26,0000 0000 0000 0000 000000
2015-09-08 01:47:05,0.02,0.63,0.00,26.90,30.92,33.68,14.38,46.82,1022.00,2022.02,3158.10,3043.01,3300.94,600.36,591.83,12.31,0000 0000 0000 0000 000000
2015-09-08 01:52:06,0.02,0.63,0.00,26.87,30.90,33.62,14.28,46.94,1021.99,2022.05,3157.71,3042.93,3300.28,600.20,591.62,12.36,0000 0000 0000 0000 000000
2015-09-08 01:57:08,0.03,0.63,0.00,26.86,30.89,33.57,14.38,46.97,1021.99,2022.10,3157.02,3042.21,3299.99,599.77,591.26,12.41,0000 0000 0000 0000 000000
2015-09-08 02:02:09,0.03,0.63,0.00,26.85,30.87,33.55,14.40,47.20,1021.99,2022.17,3156.71,3042.00,3299.55,599.94,591.40,12.46,0000 0000 0000 0000 000000
2015-09-08 02:07:10,0.02,0.63,0.00,26.85,30.86,33.55,14.36,47.25,1021.99,2022.22,3156.01,3041.88,3299.01,599.99,591.47,12.51,0000 0000 0000 0000 000000
2015-09-08 02:12:12,0.07,0.64,0.00,26.85,30.85,33.52,14.44,47.04,1021.99,2022.47,3155.50,3041.21,3298.76,599.68,591.23,12.56,0000 0000 0000 0000 000000
2015-09-08 02:17:13,0.01,0.64,0.00,26.84,30.83,33.48,14.36,47.22,1021.99,2022.55,3154.99,3041.00,3298.04,600.25,591.77,12.61,0000 0000 0000 0000 000000
2015-09-08 02:22:14,0.04,0.64,0.00,26.84,30.82,33.46,14.35,47.38,1021.99,2022.78,3154.55,3040.91,3297.96,599.89,591.39,12.66,0000 0000 0000 0000 000000
2015-09-08 02:27:16,0.04,0.64,0.00,26.84,30.80,33.46,14.35,47.20,1021.99,2022.88,3154.00,3040.24,3297.28,600.37,591.89,12.71,0000 0000 0000 0000 000000
2015-09-08 02:32:17,0.01,0.64,0.00,26.84,30.79,33.41,14.40,47.15,1021.99,2022.97,3153.67,3040.04,3297.01,600.57,592.08,12.76,0000 0000 0000 0000 000000
2015-09-08 02:37:18,0.01,0.64,0.00,26.85,30.77,33.39,14.37,47.21,1022.08,2022.98,3153.06,3040.00,3296.95,600.22,591.71,12.81,0000 0000 0000 0000 000000
2015-09-08 02:42:19,0.02,0.64,0.00,26.82,30.77,33.41,14.33,47.17,1022.13,2022.98,3152.58,3039.84,3296.32,599.54,591.25,12.86,0000 0000 0000 0000 000000
2015-09-08 02:47:21,0.02,0.65,0.00,26.79,30.75,33.39,14.41,47.38,1022.10,2022.98,3151.96,3039.10,3295.95,599.93,591.63,12.91,0000 0000 0000 0000 000000
2015-09-08 02:52:22,0.06,0.65,0.00,26.75,30.74,33.40,14.37,47.22,1022.07,2022.99,3151.07,3038.12,3295.03,599.83,591.61,12.96,0000 0000 0000 0000 000000
2015-09-08 02:57:23,0.02,0.65,0.00,26.71,30.72,33.41,14.48,47.47,1022.03,2022.99,3150.42,3037.99,3294.31,600.28,592.09,13.01,0000 0000 0000 0000 000000
2015-09-08 03:02:24,0.00,0.65,0.00,26.65,30.70,33.40,14.37,47.35,1022.11,2022.99,3150.01,3037.95,3294.01,600.00,591.98,13.06,0000 0000 0000 0000 000000
2015-09-08 03:07:25,0.03,0.65,0.00,26.58,30.68,33.43,14.50,47.27,1022.21,2023.00,3149.73,3037.42,3293.93,600.27,592.40,13.11,0000 0000 0000 0000 000000
2015-09-08 03:12:27,0.02,0.65,0.00,26.50,30.66,33.39,14.39,47.52,1022.23,2023.01,3149.05,3037.02,3293.42,600.15,592.40,13.16,0000 0000 0000 0000 000000
2015-09-08 03:17:28,0.01,0.66,0.00,26.43,30.63,33.33,14.42,47.27,1022.08,2023.08,3148.90,3037.00,3293.03,600.02,592.43,13.21,0000 0000 0000 0000 000000
2015-09-08 03:22:29,0.03,0.66,0.00,26.40,30.61,33.27,14.38,47.14,1021.99,2023.25,3148.17,3036.96,3292.99,599.98,592.23,13.26,0000 0000 0000 0000 000000
2015-09-08 03:27:30,0.06,0.66,0.00,26.44,30.58,33.19,14.47,47.24,1021.99,2023.65,3147.92,3036.63,3292.71,600.31,592.66,13.31,0000 0000 0000 0000 000000
2015-09-08 03:32:32,0.04,0.66,0.00,26.49,30.55,33.14,14.38,47.02,1021.99,2023.90,3147.21,3036.06,3292.07,599.70,591.91,13.36,0000 0000 0000 0000 000000
2015-09-08 03:37:33,0.00,0.66,0.00,26.54,30.53,33.09,14.34,47.30,1021.99,2023.95,3147.00,3036.00,3292.00,600.05,592.11,13.41,0000 0000 0000 0000 000000
2015-09-08 03:42:34,0.02,0.66,0.00,26.59,30.51,33.06,14.36,47.28,1021.99,2023.99,3146.48,3035.98,3291.84,599.94,591.84,13.46,0000 0000 0000 0000 000000
2015-09-08 03:47:36,0.02,0.67,0.00,26.17,30.49,33.12,14.29,47.23,1022.02,2023.99,3145.99,3035.63,3291.11,600.01,592.70,13.51,0000 0000 0000 0000 000000
2015-09-08 03:52:37,0.02,0.67,0.00,24.87,30.45,33.02,14.62,47.55,1022.00,2023.99,3145.29,3035.09,3291.00,600.11,595.52,13.56,0000 0000 0000 0000 000000
2015-09-08 03:57:38,0.01,0.67,0.00,23.93,30.38,32.57,14.58,47.52,1022.01,2023.99,3144.69,3035.00,3290.88,599.98,597.26,13.61,0000 0000 0000 0000 000000
2015-09-08 04:02:40,0.02,0.67,0.00,23.38,30.30,32.29,14.73,47.71,1021.99,2024.11,3144.04,3035.00,3290.81,600.57,598.98,13.67,0000 0000 0000 0000 000000
2015-09-08 04:07:42,0.06,0.67,0.00,23.02,30.22,32.44,14.63,47.82,1021.99,2024.81,3144.00,3035.01,3290.93,599.92,599.06,13.72,0000 0000 0000 0000 000000
2015-09-08 04:12:43,-0.00,0.67,0.00,22.80,30.12,32.58,14.77,48.13,1021.97,2025.00,3143.99,3035.24,3290.98,600.17,599.68,13.77,0000 0000 0000 0000 000000
2015-09-08 04:17:44,0.05,0.67,0.00,22.66,30.03,32.50,14.78,47.88,1021.97,2025.46,3143.99,3035.83,3291.01,600.23,600.10,13.82,0000 0000 0000 0000 000000
2015-09-08 04:22:45,0.01,0.68,0.00,22.60,29.93,32.41,14.72,47.86,1021.99,2025.99,3143.98,3035.99,3291.13,599.54,599.52,13.87,0000 0000 0000 0000 000000
2015-09-08 04:27:47,0.01,0.68,0.00,22.52,29.84,32.37,14.79,48.33,1021.99,2026.16,3143.98,3036.00,3291.49,600.17,600.25,13.92,0000 0000 0000 0000 000000
2015-09-08 04:32:48,0.06,0.68,0.00,22.44,29.75,32.33,14.81,48.33,1021.96,2026.91,3143.98,3036.09,3291.93,599.97,600.14,13.97,0000 0000 0000 0000 000000
2015-09-08 04:37:49,-0.01,0.68,0.00,22.45,29.67,32.29,14.75,48.38,1021.98,2027.04,3143.98,3036.57,3291.99,599.86,600.15,14.02,0000 0000 0000 0000 000000
2015-09-08 04:42:50,0.08,0.68,0.00,22.50,29.59,32.30,14.73,48.18,1021.98,2027.78,3143.98,3036.94,3291.99,599.68,599.87,14.07,0000 0000 0000 0000 000000
2015-09-08 04:47:52,0.00,0.68,0.00,22.43,29.53,32.41,14.84,48.65,1021.97,2027.99,3143.82,3036.96,3291.99,600.56,600.88,14.12,0000 0000 0000 0000 000000
2015-09-08 04:52:53,0.01,0.68,0.00,22.35,29.47,32.35,14.79,48.27,1021.99,2028.02,3143.22,3036.96,3291.99,600.05,600.62,14.17,0000 0000 0000 0000 000000
2015-09-08 04:57:54,0.07,0.69,0.00,22.31,29.41,32.31,14.80,48.47,1021.99,2028.64,3143.01,3036.98,3291.99,599.87,600.44,14.22,0000 0000 0000 0000 000000
2015-09-08 05:02:55,0.01,0.69,0.00,22.32,29.35,32.26,14.87,48.53,1021.99,2028.96,3142.98,3036.98,3291.99,600.11,600.68,14.27,0000 0000 0000 0000 000000
2015-09-08 05:07:57,0.00,0.69,0.00,22.26,29.30,32.21,14.79,48.34,1022.00,2029.00,3142.82,3036.97,3291.99,599.82,600.54,14.32,0000 0000 0000 0000 000000
2015-09-08 05:12:58,0.03,0.69,0.00,22.22,29.24,32.09,14.82,48.27,1021.90,2029.15,3142.14,3036.98,3291.98,599.91,600.65,14.37,0000 0000 0000 0000 000000
2015-09-08 05:17:59,0.06,0.69,0.00,22.40,29.19,32.04,14.82,48.43,1021.99,2029.86,3142.02,3036.98,3291.98,600.18,600.51,14.42,0000 0000 0000 0000 000000
2015-09-08 05:23:00,0.00,0.70,0.00,22.38,29.14,32.04,14.83,48.24,1021.99,2029.99,3141.98,3036.96,3291.96,600.22,600.61,14.47,0000 0000 0000 0000 000000
2015-09-08 05:28:02,0.01,0.70,0.00,22.38,29.10,32.02,14.74,48.33,1022.01,2030.01,3141.63,3036.91,3291.74,600.35,600.80,14.52,0000 0000 0000 0000 000000
2015-09-08 05:33:03,0.02,0.70,0.00,22.52,29.06,32.01,14.70,48.18,1021.99,2030.06,3141.09,3036.76,3291.22,599.63,599.75,14.57,0000 0000 0000 0000 000000
2015-09-08 05:38:04,0.06,0.70,0.00,22.92,29.05,31.99,14.62,48.04,1021.98,2030.51,3141.01,3036.29,3291.03,599.81,599.27,14.62,0000 0000 0000 0000 000000
2015-09-08 05:43:06,0.04,0.70,0.00,23.28,29.04,32.00,14.61,47.93,1022.00,2030.79,3140.51,3036.01,3290.98,599.54,598.31,14.67,0000 0000 0000 0000 000000
2015-09-08 05:48:07,0.02,0.70,0.00,23.43,29.02,31.98,14.66,47.86,1021.99,2030.94,3140.04,3035.98,3290.47,599.76,598.10,14.72,0000 0000 0000 0000 000000
2015-09-08 05:53:08,0.02,0.70,0.00,23.81,29.04,31.95,14.51,47.83,1021.99,2030.96,3139.93,3035.45,3290.01,599.81,597.37,14.77,0000 0000 0000 0000 000000
2015-09-08 05:58:09,0.03,0.71,0.00,24.18,29.05,31.91,14.53,47.73,1022.00,2030.96,3139.13,3035.01,3289.53,600.00,596.78,14.82,0000 0000 0000 0000 000000
2015-09-08 06:03:10,0.04,0.71,0.00,24.47,29.06,31.89,14.60,47.88,1022.00,2030.94,3138.55,3034.50,3288.73,600.06,596.28,14.87,0000 0000 0000 0000 000000
2015-09-08 06:08:12,0.02,0.71,0.00,24.71,29.07,31.79,14.56,47.95,1022.01,2030.89,3137.88,3034.00,3288.03,600.17,595.95,14.92,0000 0000 0000 0000 000000
2015-09-08 06:13:13,0.05,0.71,0.00,24.92,29.10,31.67,14.46,47.67,1022.02,2030.90,3137.06,3033.44,3287.59,599.80,595.30,14.97,0000 0000 0000 0000 000000
2015-09-08 06:18:14,-0.01,0.71,0.00,25.10,29.12,31.60,14.44,47.67,1022.03,2030.59,3136.43,3032.98,3286.96,599.88,594.84,15.02,0000 0000 0000 0000 000000
2015-09-08 06:23:15,0.03,0.71,0.00,25.25,29.14,31.56,14.37,47.48,1022.14,2030.26,3135.65,3032.24,3286.14,599.92,594.76,15.07,0000 0000 0000 0000 000000
2015-09-08 06:28:17,0.02,0.71,0.00,25.38,29.16,31.55,14.43,47.41,1022.33,2030.12,3134.96,3031.76,3285.47,599.81,594.48,15.12,0000 0000 0000 0000 000000
2015-09-08 06:33:18,0.03,0.72,0.00,25.49,29.19,31.55,14.47,47.48,1022.30,2030.03,3134.26,3031.04,3284.82,600.10,594.47,15.17,0000 0000 0000 0000 000000
2015-09-08 06:38:19,0.04,0.72,0.00,25.58,29.21,31.58,14.43,47.58,1022.33,2030.00,3133.50,3030.44,3284.04,600.19,594.26,15.22,0000 0000 0000 0000 000000
2015-09-08 06:43:21,0.02,0.72,0.00,25.67,29.24,31.59,14.46,47.29,1022.34,2030.00,3132.77,3029.98,3283.29,599.86,593.89,15.27,0000 0000 0000 0000 000000
2015-09-08 06:48:22,0.04,0.72,0.00,25.75,29.27,31.61,14.39,47.47,1022.38,2030.00,3131.98,3029.22,3282.82,599.76,593.66,15.32,0000 0000 0000 0000 000000
2015-09-08 06:53:23,0.07,0.72,0.00,25.82,29.30,31.62,14.39,47.41,1022.43,2030.00,3130.76,3028.48,3281.83,599.94,593.69,15.37,0000 0000 0000 0000 000000
2015-09-08 06:58:24,0.03,0.73,0.00,25.88,29.33,31.65,14.39,47.34,1022.46,2029.98,3129.80,3027.82,3280.89,600.17,593.86,15.42,0000 0000 0000 0000 000000
2015-09-08 07:03:25,0.04,0.73,0.00,25.97,29.36,31.67,14.36,47.38,1022.47,2029.87,3128.70,3026.93,3279.91,600.21,593.60,15.47,0000 0000 0000 0000 000000
2015-09-08 07:08:27,0.01,0.73,0.00,26.04,29.40,31.71,14.36,47.33,1022.47,2029.34,3127.54,3026.05,3278.87,600.00,593.37,15.52,0000 0000 0000 0000 000000
2015-09-08 07:13:28,0.04,0.73,0.00,26.12,29.43,31.74,14.41,47.49,1022.47,2029.08,3126.52,3025.20,3277.92,600.26,593.48,15.57,0000 0000 0000 0000 000000
2015-09-08 07:18:29,0.06,0.73,0.00,26.20,29.47,31.77,14.37,47.48,1022.48,2029.00,3125.29,3024.32,3276.81,599.92,593.00,15.62,0000 0000 0000 0000 000000
2015-09-08 07:23:31,0.05,0.74,0.00,26.27,29.51,31.82,14.31,47.27,1022.48,2029.00,3124.12,3023.53,3275.77,599.95,592.89,15.67,0000 0000 0000 0000 000000
2015-09-08 07:28:32,0.05,0.74,0.00,26.35,29.55,31.85,14.33,47.26,1022.48,2028.98,3123.00,3022.57,3274.79,600.11,592.83,15.72,0000 0000 0000 0000 000000
2015-09-08 07:33:33,0.06,0.74,0.00,26.43,29.59,31.89,14.34,47.23,1022.49,2028.91,3121.75,3021.73,3273.71,599.87,592.51,15.77,0000 0000 0000 0000 000000
2015-09-08 07:38:35,0.11,0.75,0.00,26.49,29.63,31.91,14.27,47.33,1022.51,2028.82,3119.78,3020.40,3272.37,600.03,592.41,15.82,0000 0000 0000 0000 000000
2015-09-08 07:43:36,0.14,0.76,0.00,26.56,29.68,31.96,14.39,47.43,1022.50,2028.91,3116.91,3018.10,3270.08,600.15,592.41,15.87,0000 0000 0000 0000 000000
2015-09-08 07:48:37,0.10,0.76,0.00,26.62,29.72,32.01,14.36,47.26,1022.52,2028.85,3114.67,3016.29,3268.24,600.00,592.25,15.92,0000 0000 0000 0000 000000
2015-09-08 07:53:39,0.06,0.77,0.00,26.69,29.76,32.04,14.39,47.27,1022.65,2028.52,3112.60,3014.57,3266.42,600.10,592.26,15.97,0000 0000 0000 0000 000000
2015-09-08 07:58:40,0.11,0.77,0.00,26.76,29.79,32.07,14.40,47.44,1022.92,2028.08,3110.37,3012.64,3264.37,600.29,592.54,16.02,0000 0000 0000 0000 000000
2015-09-08 08:03:41,0.15,0.78,0.00,26.83,29.83,32.12,14.26,47.37,1022.96,2028.00,3107.43,3010.19,3261.94,599.89,591.97,16.08,0000 0000 0000 0000 000000
2015-09-08 08:08:42,0.12,0.78,0.00,26.91,29.88,32.13,14.34,47.23,1022.96,2028.00,3105.00,3008.19,3259.74,599.73,591.68,16.13,0000 0000 0000 0000 000000
2015-09-08 08:13:43,0.11,0.79,0.00,26.98,29.92,32.18,14.28,47.19,1022.97,2027.98,3102.99,3006.58,3257.90,599.89,591.68,16.18,0000 0000 0000 0000 000000
2015-09-08 08:18:44,0.04,0.79,0.00,27.06,29.96,32.23,14.33,47.18,1022.98,2027.74,3101.43,3005.14,3256.28,599.85,591.51,16.23,0000 0000 0000 0000 000000
2015-09-08 08:23:46,0.08,0.79,0.00,27.13,30.01,32.28,14.27,47.15,1023.08,2027.19,3099.68,3003.67,3254.76,599.76,591.45,16.28,0000 0000 0000 0000 000000
2015-09-08 08:28:47,0.10,0.80,0.00,27.21,30.05,32.34,14.33,46.98,1023.29,2027.01,3097.32,3001.63,3252.47,599.99,591.52,16.33,0000 0000 0000 0000 000000
2015-09-08 08:33:48,0.07,0.80,0.00,27.29,30.10,32.39,14.29,47.12,1023.44,2027.00,3095.87,3000.50,3251.28,600.02,591.50,16.38,0000 0000 0000 0000 000000
2015-09-08 08:38:49,0.05,0.81,0.00,27.35,30.15,32.46,14.36,47.14,1023.45,2026.98,3094.62,2999.56,3250.19,599.98,591.31,16.43,0000 0000 0000 0000 000000
2015-09-08 08:43:51,0.03,0.81,0.00,27.41,30.20,32.54,14.27,47.09,1023.45,2026.70,3093.38,2998.48,3249.01,600.14,591.37,16.48,0000 0000 0000 0000 000000
2015-09-08 08:48:52,0.01,0.81,0.00,27.46,30.25,32.59,14.26,46.92,1023.48,2026.11,3092.24,2997.61,3248.03,599.83,591.00,16.53,0000 0000 0000 0000 000000
2015-09-08 08:53:53,0.04,0.81,0.00,27.49,30.31,32.65,14.34,47.00,1023.49,2026.00,3091.16,2996.75,3247.10,600.46,591.49,16.58,0000 0000 0000 0000 000000
2015-09-08 08:58:54,0.07,0.82,0.00,27.52,30.36,32.72,14.28,46.92,1023.62,2025.99,3089.89,2995.77,3245.98,600.10,591.25,16.63,0000 0000 0000 0000 000000
2015-09-08 09:03:55,0.06,0.82,0.00,27.55,30.41,32.78,14.24,46.77,1023.70,2025.94,3088.56,2994.77,3244.80,599.91,591.02,16.68,0000 0000 0000 0000 000000
2015-09-08 09:08:56,0.15,0.83,0.00,27.57,30.45,32.83,14.27,47.00,1023.91,2025.48,3085.67,2991.75,3241.39,599.80,591.06,16.73,0000 0000 0000 0000 000000
2015-09-08 09:13:58,0.13,0.83,0.00,27.60,30.50,32.88,14.40,47.08,1023.94,2025.03,3083.01,2989.66,3239.01,600.42,591.58,16.78,0000 0000 0000 0000 000000
2015-09-08 09:18:59,0.07,0.84,0.00,27.61,30.54,32.92,14.24,46.77,1023.94,2025.00,3080.97,2988.01,3237.27,599.87,591.08,16.83,0000 0000 0000 0000 000000
2015-09-08 09:24:00,0.06,0.84,0.00,27.62,30.59,32.95,14.31,46.78,1023.94,2024.99,3079.79,2987.14,3236.27,600.22,591.22,16.88,0000 0000 0000 0000 000000
2015-09-08 09:29:02,0.06,0.84,0.00,27.63,30.63,33.00,14.35,46.85,1023.94,2024.94,3078.59,2986.23,3235.28,600.07,591.16,16.93,0000 0000 0000 0000 000000
2015-09-08 09:34:03,0.01,0.85,0.00,27.64,30.66,33.05,14.32,46.83,1023.94,2024.50,3077.51,2985.32,3234.28,600.21,591.33,16.98,0000 0000 0000 0000 000000
2015-09-08 09:39:05,0.03,0.85,0.00,27.66,30.70,33.08,14.24,46.85,1023.96,2024.05,3076.37,2984.50,3233.33,599.88,591.04,17.03,0000 0000 0000 0000 000000
2015-09-08 09:44:06,0.03,0.85,0.00,27.69,30.73,33.12,14.33,46.98,1023.96,2024.00,3075.36,2983.87,3232.45,599.87,590.79,17.08,0000 0000 0000 0000 000000
2015-09-08 09:49:07,0.05,0.85,0.00,27.71,30.77,33.13,14.26,46.75,1024.09,2024.00,3074.34,2982.99,3231.53,599.88,590.90,17.13,0000 0000 0000 0000 000000
2015-09-08 09:54:09,0.05,0.85,0.00,27.71,30.80,33.16,14.28,47.00,1024.28,2023.98,3073.25,2982.11,3230.62,599.94,591.03,17.18,0000 0000 0000 0000 000000
2015-09-08 09:59:10,0.03,0.86,0.00,27.70,30.83,33.24,14.31,47.02,1024.35,2023.79,3072.18,2981.31,3229.61,599.97,591.35,17.23,0000 0000 0000 0000 000000
2015-09-08 10:04:11,0.01,0.86,0.00,27.65,30.86,33.28,14.32,46.99,1024.42,2023.26,3071.10,2980.49,3228.66,600.41,591.69,17.28,0000 0000 0000 0000 000000
2015-09-08 10:09:13,0.04,0.86,0.00,27.61,30.88,33.37,14.26,46.94,1024.44,2023.11,3070.00,2979.67,3227.69,599.94,591.35,17.33,0000 0000 0000 0000 000000
2015-09-08 10:14:14,0.07,0.86,0.00,27.54,30.90,33.50,14.24,46.89,1024.45,2023.00,3068.68,2978.71,3226.62,599.98,591.55,17.38,0000 0000 0000 0000 000000
2015-09-08 10:19:15,0.13,0.87,0.00,27.46,30.91,33.61,14.37,46.89,1024.46,2023.00,3066.41,2976.89,3224.59,600.08,591.86,17.43,0000 0000 0000 0000 000000
2015-09-08 10:24:17,0.22,0.87,0.00,27.38,30.92,33.72,14.28,46.88,1024.48,2023.00,3062.82,2974.04,3221.61,599.86,591.81,17.48,0000 0000 0000 0000 000000
2015-09-08 10:29:18,0.39,0.89,0.00,27.31,30.92,33.75,14.43,46.99,1024.50,2023.00,3055.91,2968.87,3216.02,600.19,592.22,17.53,0000 0000 0000 0000 000000
2015-09-08 10:34:19,0.42,0.91,0.00,27.21,30.91,33.78,14.34,47.00,1024.63,2023.00,3048.03,2962.82,3209.61,600.18,592.31,17.58,0000 0000 0000 0000 000000
2015-09-08 10:39:21,0.50,0.94,0.00,27.11,30.90,33.78,14.36,47.02,1024.76,2023.00,3038.59,2955.84,3202.15,599.65,592.27,17.63,0000 0000 0000 0000 000000
2015-09-08 10:44:22,0.43,0.96,0.00,27.03,30.88,33.77,14.46,46.90,1024.79,2023.00,3029.93,2949.54,3195.58,599.99,592.77,17.68,0000 0000 0000 0000 000000
2015-09-08 10:49:23,0.35,0.98,0.00,26.98,30.86,33.69,14.38,46.95,1024.82,2023.00,3022.77,2944.33,3189.98,599.66,592.59,17.73,0000 0000 0000 0000 000000
2015-09-08 10:54:25,0.43,1.00,0.00,26.97,30.84,33.62,14.46,47.12,1024.72,2023.00,3015.02,2938.80,3184.05,600.17,593.00,17.78,0000 0000 0000 0000 000000
2015-09-08 10:59:26,0.37,1.02,0.00,27.00,30.82,33.55,14.36,46.83,1024.84,2023.00,3007.46,2933.21,3178.09,600.05,592.99,17.83,0000 0000 0000 0000 000000
2015-09-08 11:04:27,0.31,1.04,0.00,27.02,30.80,33.52,14.38,46.83,1024.89,2023.01,3001.49,2928.81,3173.42,600.08,592.83,17.88,0000 0000 0000 0000 000000
2015-09-08 11:09:28,0.28,1.05,0.00,27.04,30.78,33.48,14.39,46.87,1024.87,2023.01,2996.03,2924.88,3169.20,600.15,592.88,17.93,0000 0000 0000 0000 000000
2015-09-08 11:14:30,0.29,1.07,0.00,27.07,30.77,33.44,14.40,46.77,1024.85,2023.02,2990.62,2920.88,3164.94,600.13,592.93,17.98,0000 0000 0000 0000 000000
2015-09-08 11:19:31,0.36,1.08,0.00,27.10,30.76,33.40,14.36,46.73,1024.82,2023.06,2984.21,2915.97,3159.77,599.87,592.52,18.03,0000 0000 0000 0000 000000
2015-09-08 11:24:32,0.26,1.10,0.00,27.12,30.75,33.34,14.42,46.95,1024.83,2023.10,2978.79,2911.95,3155.43,599.98,592.62,18.08,0000 0000 0000 0000 000000
2015-09-08 11:29:34,0.18,1.11,0.00,27.14,30.75,33.30,14.42,46.96,1024.87,2023.23,2975.39,2909.43,3152.81,600.08,592.68,18.13,0000 0000 0000 0000 000000
2015-09-08 11:34:35,0.14,1.12,0.00,27.15,30.75,33.26,14.44,46.91,1024.87,2023.29,2972.64,2907.61,3150.76,600.58,593.07,18.18,0000 0000 0000 0000 000000
2015-09-08 11:39:36,0.14,1.12,0.00,27.17,30.75,33.22,14.34,46.74,1024.89,2023.49,2970.24,2905.96,3149.01,599.99,592.52,18.23,0000 0000 0000 0000 000000
2015-09-08 11:44:37,0.10,1.13,0.00,27.19,30.74,33.20,14.42,46.68,1024.89,2023.59,2968.27,2904.55,3147.45,600.86,593.36,18.28,0000 0000 0000 0000 000000
2015-09-08 11:49:39,0.14,1.14,0.00,27.20,30.75,33.17,14.36,46.90,1024.89,2023.85,2966.03,2902.97,3145.69,600.06,592.63,18.33,0000 0000 0000 0000 000000
2015-09-08 11:54:40,0.15,1.14,0.00,27.21,30.75,33.16,14.38,46.82,1024.91,2023.80,2963.06,2900.83,3143.35,600.17,592.64,18.38,0000 0000 0000 0000 000000
2015-09-08 11:59:41,0.13,1.15,0.00,27.22,30.75,33.18,14.41,46.67,1024.92,2023.55,2960.09,2898.67,3141.05,600.28,592.66,18.43,0000 0000 0000 0000 000000
2015-09-08 12:04:43,0.13,1.16,0.00,27.23,30.75,33.19,14.34,46.52,1024.92,2023.66,2957.90,2897.08,3139.32,600.07,592.48,18.48,0000 0000 0000 0000 000000
2015-09-08 12:09:44,0.15,1.17,0.00,27.24,30.75,33.20,14.39,46.70,1024.92,2023.69,2955.04,2894.99,3136.99,599.85,592.37,18.53,0000 0000 0000 0000 000000
2015-09-08 12:14:45,0.37,1.18,0.00,27.25,30.75,33.22,14.30,47.08,1024.92,2023.55,2949.53,2890.53,3132.44,599.81,592.16,18.58,0000 0000 0000 0000 000000
2015-09-08 12:19:46,0.42,1.20,0.00,27.25,30.77,33.24,14.33,46.89,1024.92,2023.16,2941.37,2883.84,3125.39,599.99,592.43,18.63,0000 0000 0000 0000 000000
2015-09-08 12:24:47,0.41,1.22,0.00,27.25,30.77,33.25,14.30,46.76,1024.92,2023.12,2933.79,2878.11,3119.24,600.13,592.53,18.68,0000 0000 0000 0000 000000
2015-09-08 12:29:48,0.36,1.24,0.00,27.25,30.77,33.26,14.31,46.91,1024.92,2023.05,2926.61,2873.00,3113.71,600.04,592.59,18.73,0000 0000 0000 0000 000000
2015-09-08 12:34:50,0.29,1.26,0.00,27.25,30.78,33.30,14.33,46.96,1024.92,2023.05,2920.83,2868.84,3109.27,600.13,592.46,18.78,0000 0000 0000 0000 000000
2015-09-08 12:39:51,0.25,1.27,0.00,27.25,30.80,33.31,14.41,46.79,1024.92,2023.03,2916.04,2865.21,3105.36,599.83,592.30,18.83,0000 0000 0000 0000 000000
2015-09-08 12:44:52,0.22,1.28,0.00,27.23,30.80,33.30,14.35,46.92,1024.92,2023.02,2911.97,2862.12,3102.03,599.89,592.29,18.88,0000 0000 0000 0000 000000
2015-09-08 12:49:54,0.23,1.29,0.00,27.23,30.80,33.32,14.39,46.91,1024.92,2023.01,2907.67,2858.93,3098.62,600.03,592.59,18.93,0000 0000 0000 0000 000000
2015-09-08 12:54:55,0.28,1.31,0.00,27.22,30.80,33.37,14.34,46.84,1024.92,2023.00,2902.85,2855.36,3094.78,599.91,592.29,18.98,0000 0000 0000 0000 000000